Location: Waco, TX
(31.5480°N, 97.1670°W)
Time: 08:29:20
(UTC-05:00)

ISS - Pass Details

Date: 19 October 2019
Orbit: 411 x 421 km, 51.6° (Epoch: 18 October)

Event Time Altitude Azimuth Distance (km) Brightness Sun altitude
Rises 09:56:34 0° 272° (W) 2,355 -0.4 27.2°
Reaches altitude 10° 09:59:52 10° 307° (NW) 1,492 -1.4 27.7°
Maximum altitude 10:01:06 12° 329° (NNW) 1,399 -1.5 28.0°
Drops below altitude 10° 10:02:20 10° 350° (N) 1,492 -1.3 28.2°
Sets 10:05:38 0° 26° (NNE) 2,355 0.0 28.8°
